Home   Weather   Kenema   Past weeks

Flag for Sierra Leone Past Weather in Kenema, Sierra Leone — Yesterday and Last 2 Weeks

Now
73 °F

Passing clouds.


Feels Like: 70 °F
Forecast: N/A
Wind: 5 mph from Northeast

Location: Roberts Field

Current Time: Dec 8, 2016 at 8:26:04 pm

Latest Report: Dec 8, 2016 at 8:00 pm


Visibility: N/A

Pressure: 29.89 "Hg

Humidity: 94%

Dew Point: 72 °F

Location of KenemaLocation

Past Weather in Kenema — Graph

°F

Kenema Temperature Yesterday

Maximum temperature yesterday: 88 °F (at 12:30 pm)
Minimum temperature yesterday: 73 °F (at 11:00 pm)
Average temperature yesterday: 81 °F

High & Low Weather Summary for the Past Weeks

 TemperatureHumidityPressure
High91 °F (Nov 24, 2:00 pm)100% (Nov 23, 9:00 pm)29.95 "Hg (Nov 23, 9:00 pm)
Low73 °F (Nov 23, 9:00 pm)63% (Nov 24, 2:00 pm)29.74 "Hg (Nov 26, 3:30 pm)
Average81 °F86%29.86 "Hg
* Reported Nov 23 7:00 pm — Dec 8 7:00 pm, Kenema, Weather by CustomWeather, © 2016

Note: Actual official high and low records may vary slightly from our data, if they occured in-between our weather recording intervals... More about our weather records

Advertising

Kenema Weather History for the Previous 24 Hours

Scroll right to see more
 ConditionsComfort  
Time TempWeatherWind HumidityBarometerVisibility
7:00 pm
Thu, Dec 8
73 °FThunderstorms. Partly sunny.No wind94%29.86 "HgN/A
6:30 pm73 °FThunderstorms. Partly sunny.No wind94%29.86 "HgN/A
6:00 pm73 °FThunderstorms. Partly sunny.No wind94%29.83 "Hg6 mi
5:30 pm75 °FThunderstorms. Partly sunny.5 mph94%29.80 "Hg5 mi
5:00 pm77 °FThunderstorms. Partly sunny.12 mph83%29.86 "Hg4 mi
4:30 pm86 °FThunderstorms. Partly sunny.6 mph75%29.80 "HgN/A
4:00 pm88 °FScattered clouds.9 mph75%29.80 "HgN/A
3:30 pm88 °FScattered clouds.7 mph70%29.83 "HgN/A
3:00 pm88 °FPartly sunny.12 mph75%29.83 "HgN/A
2:30 pm88 °FPartly sunny.10 mph70%29.83 "HgN/A
2:00 pm88 °FPartly sunny.9 mph70%29.83 "HgN/A
1:30 pm88 °FPartly sunny.6 mph75%29.83 "HgN/A
1:00 pm88 °FPartly sunny.6 mph75%29.86 "HgN/A
12:30 pm88 °FPartly sunny.9 mph70%29.86 "HgN/A
12:00 pm86 °FPartly sunny.6 mph75%29.89 "HgN/A
11:30 am86 °FPartly sunny.5 mph79%29.89 "HgN/A
11:00 am86 °FScattered clouds.No wind75%29.89 "HgN/A
10:30 am84 °FScattered clouds.6 mph74%29.92 "HgN/A
10:00 am81 °FPassing clouds.5 mph84%29.92 "HgN/A
9:30 am79 °FPartly sunny.5 mph89%29.92 "HgN/A
9:00 am77 °FPartly sunny.5 mph94%29.92 "HgN/A
8:30 am75 °FPartly sunny.3 mph94%29.92 "HgN/A
8:00 am75 °FPartly sunny.5 mph89%29.89 "HgN/A
7:30 am73 °FPassing clouds.No wind94%29.89 "HgN/A
7:00 am73 °FPassing clouds.3 mph94%29.86 "HgN/A
6:30 am73 °FPassing clouds.No wind94%29.86 "HgN/A
6:00 am73 °FPassing clouds.No wind94%29.86 "HgN/A
5:30 am73 °FPassing clouds.No wind94%29.86 "HgN/A
3:30 am73 °FPassing clouds.5 mph94%29.86 "HgN/A
2:30 am75 °FPassing clouds.8 mph94%29.86 "HgN/A
2:00 am75 °FPassing clouds.6 mph94%29.86 "HgN/A
1:30 am75 °FPassing clouds.6 mph94%29.86 "HgN/A
1:00 am75 °FPassing clouds.3 mph94%29.89 "HgN/A
12:30 am75 °FPassing clouds.6 mph94%29.89 "HgN/A
12:00 am75 °FThunderstorms. Passing clouds.5 mph94%29.92 "HgN/A
11:30 pm
Wed, Dec 7
73 °FThunderstorms. Passing clouds.No wind94%29.89 "HgN/A
11:00 pm73 °FThunderstorms. Passing clouds.3 mph94%29.92 "HgN/A
10:30 pm75 °FThunderstorms. Passing clouds.9 mph94%29.92 "Hg6 mi
10:00 pm75 °FThunderstorms. Partly cloudy.6 mph94%29.92 "Hg4 mi
9:30 pm75 °FThunderstorms. Partly cloudy.14 mph94%29.92 "Hg3 mi
9:00 pm79 °FThunderstorms. Passing clouds.14 mph89%29.92 "HgN/A
8:30 pm79 °FPassing clouds.3 mph94%29.89 "HgN/A
8:00 pm79 °FPassing clouds.No wind94%29.89 "HgN/A
Weather by CustomWeather, © 2016

See weather overviewHow to use our weather pages